Notices

What's New in latest Release from April 7th, 2021:

- Updated Glossary, including Speed of Maximum Gust, and Total Hourly Precipitation

- Updated national and regional climate services offices contacts and prices information

- Addition of station inventory lists for 1981-2010, 1971-2000, and 1961-1990 Normals.

If you haven't already, please take our survey and provide feedback about our website: https://eccc.sondage-survey.ca/f/LanguageSelection.aspx?s=442ca660-fcf1-47c0-95a9-59707d6fd709

Hourly Data Report for December 28, 2020

SHEARWATER RCS
NOVA SCOTIA
Current Station Operator: ECCC - MSC

44°37'47.000" N
63°30'48.000" W
24.00 m
8205092
71264
AAW

Download Data

Hourly Data (December 2020)
Hourly Data Report for December 28, 2020
TIME
LST
Temp Definition
°C
Dew Point Definition
°C
Rel Hum Definition
%
Precip. Amount Definition
mm

Wind Dir Definition
10's deg

Wind Spd Definition
km/h
Visibility Definition
km
Stn Press Definition
kPa
Hmdx Definition


Wind Chill Definition


Weather Definition


00:00 -2.2 -6.2 74 0.0 33 7   102.72   -5 LegendNANA
01:00 -2.6 -6.3 75 0.0 36 7   102.72   -5 LegendNANA
02:00 -3.2 -6.7 77 0.0 1 7   102.77   -6 LegendNANA
03:00 -3.2 -6.9 75 0.0 3 10   102.81   -7 LegendNANA
04:00 -3.9 -6.9 80 0.0 4 10   102.82   -8 LegendNANA
05:00 -3.9 -7.3 77 0.0 4 10   102.85   -8 LegendNANA
06:00 -4.2 -7.2 80 0.0 4 10   102.81   -8 LegendNANA
07:00 -3.7 -7.4 76 0.0 2 11   102.84   -8 LegendNANA
08:00 -3.6 -8.4 69 0.0 4 10   102.83   -8 LegendNANA
09:00 -2.7 -7.0 73 0.0 5 12   102.84   -7 LegendNANA
10:00 -0.7 -4.6 75 0.0 7 12   102.81   -5 LegendNANA
11:00 1.9 -2.8 71 0.0 8 10   102.74     LegendNANA
12:00 2.6 -2.7 68 0.0 12 12   102.66     LegendNANA
13:00 3.4 -1.2 72 0.0 13 12   102.59     LegendNANA
14:00 4.0 -0.2 74 0.0 13 14   102.47     LegendNANA
15:00 4.6 1.1 78 0.0 12 12   102.33     LegendNANA
16:00 4.9 2.0 81 0.0 12 10   102.28     LegendNANA
17:00 5.8 2.7 80 0.0 15 20   102.20     LegendNANA
18:00 5.9 3.7 86 0.0 14 18   102.10     LegendNANA
19:00 6.1 4.2 88 0.0 15 18   102.09     LegendNANA
20:00 6.1 5.2 94 0.0 14 20   102.01     LegendNANA
21:00 6.3 5.5 95 0.0 16 17   101.92     LegendNANA
22:00 6.7 5.9 95 0.3 15 17   101.82     LegendNANA
23:00 6.7 5.9 95 0.0 15 11   101.72     LegendNANA

Notes on Data Quality.

Legend

  • E = Estimated
  • M = Missing
  • NA = Not Available*
  • [empty] = Indicates an unobserved value
Date modified: